Tracking 22454 objects as of 5-Mar-2021
HD Live streaming from Space Station
objects crossing your sky now

FREGAT DEB

Track FREGAT DEB now!
10-day predictions


NORAD ID: 46011
Int'l Code: 2011-037HN
Perigee: 479.1 km
Apogee: 3,079.0 km
Inclination: 51.4 °
Period: 122.0 minutes
Semi major axis: 8150 km
RCS: Unknown
Launch date: July 18, 2011
Source: Commonwealth of Independent States (former USSR) (CIS)
Launch site: TYURATAM MISSILE AND SPACE COMPLEX (TTMTR)

Note: This is SATELLITE DEBRIS
aabbcc
Your satellite tracking list
Your tracking list is empty




NASA's NSSDC Master Catalog

Two Line Element Set (TLE):
1 46011U 11037HN  20240.77945967 +.00345270 +00000-0 +97243-1 0  9993
2 46011 051.3863 158.2821 1594992 198.8284 154.6375 11.79948276003486
Source of the keplerian elements: AFSPC